Theta_e
286 286 287 287 287 288 289 290 291 291 290 289 290 292 293 292 291 291 292 293 293 294 293 294 294 296 298 299 300 300 300 302 304 304 304 304 304 305 306 308 311 312 314 318 320 322 322 321 316 314 315 314
285 285 286 286 285 286 287 288 288 288 288 286 287 288 290 290 289 288 290 291 291 292 292 292 293 294 296 297 298 299 298 299 302 302 302 302 301 301 303 305 307 309 311 314 317 319 321 322 318 314 315 315
285 284 284 284 284 284 284 285 286 285 285 284 284 285 286 287 287 287 288 289 289 290 290 289 291 292 294 295 296 297 296 297 299 300 300 300 299 299 300 301 303 305 307 310 312 315 319 321 318 313 314 314
284 284 284 284 283 284 283 284 284 283 283 282 282 284 285 285 285 285 286 287 287 287 288 287 289 290 293 293 294 294 294 295 297 298 297 297 297 296 298 299 300 301 303 306 309 312 315 317 316 314 314 313
284 284 283 283 283 283 283 283 283 282 282 282 282 282 283 284 284 284 284 285 285 285 286 286 287 288 290 291 292 292 292 292 294 295 295 295 295 294 296 297 298 299 300 302 305 308 310 313 315 314 313 313
284 284 283 283 283 283 283 282 282 282 282 282 282 281 281 282 282 283 283 283 284 284 284 285 285 285 287 288 289 290 289 290 291 293 293 293 293 292 294 296 297 297 297 299 301 304 306 310 313 312 312 313
284 284 284 283 283 283 283 282 282 282 282 282 281 281 281 281 281 281 282 282 282 283 283 283 283 283 284 285 286 287 287 288 289 290 291 292 292 292 292 293 295 295 295 296 298 301 303 305 308 310 311 313
284 284 284 283 283 283 283 282 282 282 282 282 281 281 281 281 281 281 281 281 281 282 282 282 282 282 282 283 285 285 286 286 287 287 288 290 291 292 292 291 292 293 293 294 296 298 299 301 303 306 309 311
284 283 284 283 283 283 283 282 282 282 282 282 281 281 281 281 281 281 280 280 281 281 281 281 281 281 281 282 283 284 284 285 285 286 287 287 289 290 290 290 290 290 291 292 293 296 297 298 300 303 305 307
284 283 283 283 283 282 282 282 282 282 282 282 281 281 281 281 281 281 280 280 280 280 280 281 281 281 281 281 281 282 283 283 284 285 285 286 286 287 288 289 289 289 289 290 292 293 295 296 298 300 302 304
283 283 283 282 282 282 282 282 282 282 282 282 281 281 281 281 281 281 280 280 280 280 280 280 280 280 280 280 280 281 281 282 282 283 284 284 285 286 286 287 288 289 289 289 291 292 293 295 296 298 300 301
282 282 282 282 282 281 281 281 281 281 281 281 281 281 281 281 281 281 280 280 280 280 279 280 280 280 280 280 280 280 280 281 281 282 282 283 284 284 285 286 287 288 288 288 289 290 291 293 294 296 298 300
281 281 281 281 281 281 281 281 281 281 281 281 281 281 281 281 281 280 280 280 280 280 279 279 279 279 279 279 279 280 280 280 280 281 281 281 282 283 283 284 285 286 287 288 288 289 290 291 292 294 296 299
281 281 281 280 280 280 280 280 281 281 281 281 281 281 281 281 281 280 280 280 280 279 279 279 279 279 279 279 279 279 279 279 279 280 280 280 281 281 282 282 283 284 286 287 287 287 288 289 290 292 295 297
280 280 280 280 280 280 280 280 280 280 280 280 280 280 280 280 280 280 280 280 280 279 279 279 279 279 279 279 278 278 278 279 279 279 279 280 280 280 280 281 281 282 283 285 286 286 287 288 289 290 293 296
280 279 279 279 279 279 279 279 279 279 280 280 280 280 280 280 280 280 280 280 279 279 279 279 279 279 279 278 278 278 278 278 278 279 279 279 279 279 279 280 280 281 281 283 284 285 286 287 288 289 291 294
279 279 278 279 278 278 278 279 279 279 279 279 279 279 279 280 280 280 280 279 279 279 279 279 279 279 278 278 278 278 278 278 278 278 278 278 278 279 279 279 279 279 280 281 282 283 284 285 286 287 288 291
278 278 278 278 278 278 278 278 278 278 279 279 278 278 278 279 279 279 279 279 279 278 279 279 278 278 278 278 278 278 277 277 278 277 278 278 278 278 278 278 278 278 278 279 280 282 283 283 285 286 287 288
277 277 277 277 277 277 277 277 278 278 278 278 278 278 277 278 278 278 278 278 278 278 278 278 278 278 277 277 277 277 277 277 277 277 277 277 277 277 277 277 277 278 278 278 279 280 281 282 283 284 286 287
277 277 276 277 276 276 276 277 277 277 277 277 277 277 277 277 277 277 277 277 277 277 277 277 277 277 277 277 277 277 277 277 277 277 277 277 277 277 277 277 277 277 277 278 278 279 280 281 282 283 285 286
276 276 276 276 276 276 276 276 276 276 276 276 276 276 276 276 276 276 276 276 276 276 276 276 276 276 276 276 276 277 277 277 277 276 276 276 276 276 276 277 277 277 277 278 278 278 279 280 282 283 284 285
276 276 275 275 275 275 275 275 275 275 275 275 275 275 275 275 275 275 275 275 275 276 276 276 275 275 275 275 276 276 276 276 276 276 276 276 276 276 276 276 277 277 277 278 278 278 279 279 281 282 283 284
275 275 275 274 274 274 274 274 274 274 274 274 274 274 274 275 274 275 275 274 275 275 275 275 275 275 275 275 275 275 275 275 276 275 275 275 276 276 276 276 276 277 277 277 278 278 279 279 280 281 283 284
274 274 274 273 273 272 272 272 272 272 272 273 273 273 274 274 274 274 274 274 274 274 274 274 274 274 274 274 274 274 274 274 275 275 275 275 275 275 275 276 276 276 277 277 277 278 279 279 280 281 283 285
274 273 272 272 272 272 271 271 271 271 272 272 273 273 273 273 273 273 273 273 273 273 273 273 273 273 273 274 274 274 274 274 274 274 274 274 274 275 275 275 276 276 276 276 277 278 278 279 280 282 284 286
273 272 271 271 271 271 271 271 271 271 272 272 272 272 272 272 272 272 272 272 272 272 272 272 272 273 273 273 273 273 273 273 273 273 273 274 274 274 274 275 275 275 276 276 277 277 278 279 281 283 285 287
272 271 271 271 271 271 271 271 271 271 272 272 271 272 271 271 271 271 271 271 271 271 272 272 272 272 272 272 272 272 272 272 273 273 273 273 273 273 274 274 275 275 275 276 276 277 277 280 281 283 284 285
271 271 271 271 271 271 270 270 270 271 271 271 271 271 271 270 270 270 270 271 271 271 271 271 271 271 271 271 271 272 272 272 272 272 273 273 273 273 274 274 275 275 275 275 276 276 277 279 280 281 282 282
271 271 271 271 271 270 270 270 270 270 271 271 270 270 270 270 270 270 270 270 270 271 271 271 271 271 271 271 271 271 271 271 272 272 272 273 273 274 274 275 275 275 275 275 275 276 277 277 278 279 281 280
271 271 271 270 270 270 270 270 270 270 270 270 270 270 270 270 270 269 270 270 270 270 270 270 271 271 270 270 270 270 270 270 271 271 272 272 273 273 273 274 274 274 274 274 275 275 276 276 277 278 278 278
271 270 270 270 270 270 270 270 270 270 270 270 270 270 270 269 269 269 270 270 270 270 270 270 270 270 270 270 270 270 270 270 271 271 271 271 271 271 272 272 273 273 274 275 275 275 275 276 276 277 277 278
Wind_Speed
28 27 26 27 27 26 26 26 26 26 25 24 25 25 24 24 26 26 27 27 28 28 28 29 29 28 28 29 29 30 29 29 28 29 29 27 26 25 22 19 17 16 11 2 6 13 15 13 12 13 13 13
28 27 26 26 27 26 26 26 25 26 25 23 22 24 23 22 23 24 24 25 25 26 26 26 27 28 27 28 29 30 29 29 28 28 28 28 27 25 22 21 18 16 14 8 4 6 14 16 13 11 11 11
28 27 26 27 28 27 27 27 26 27 26 24 22 22 23 22 21 22 23 23 24 24 24 25 25 26 27 27 28 29 28 28 28 28 27 27 27 26 24 22 20 18 16 13 8 3 9 17 15 11 10 9
27 27 27 27 28 28 28 28 28 29 28 27 25 22 22 22 22 22 22 22 23 23 23 23 23 24 25 25 26 27 27 26 27 28 27 27 27 26 25 23 22 21 18 16 11 6 3 12 15 12 9 8
26 27 27 28 29 29 29 30 30 31 31 30 28 26 23 23 23 23 22 21 22 22 22 21 20 21 23 23 24 25 24 23 24 26 26 26 26 25 25 23 22 22 21 19 14 11 7 4 11 11 10 9
25 26 27 27 28 29 29 30 31 31 31 31 31 29 26 24 23 24 23 22 21 22 22 21 20 20 21 22 22 22 21 20 21 23 24 24 24 24 24 23 22 24 23 22 18 14 12 3 5 7 8 8
25 26 27 26 27 28 29 29 30 31 31 31 31 30 27 25 24 24 23 23 22 22 23 23 22 21 21 21 21 21 20 19 19 20 20 20 22 22 23 24 23 25 25 24 21 16 15 11 4 2 4 5
25 26 27 26 26 27 28 29 30 31 30 30 30 30 28 26 25 24 24 24 24 24 25 25 25 24 23 22 22 22 21 20 20 20 19 18 19 21 22 24 25 25 25 25 24 20 17 16 12 5 1 2
24 24 26 26 26 27 28 28 29 30 30 30 29 29 28 26 25 25 24 24 25 25 26 27 27 26 25 24 23 23 23 23 22 22 21 20 19 20 21 22 24 25 25 25 24 22 20 18 15 11 7 3
22 21 21 24 24 26 27 26 27 28 29 29 28 28 27 26 25 25 25 24 24 25 26 26 27 26 25 24 23 24 25 24 25 24 23 23 22 21 20 19 20 23 24 25 24 22 21 20 18 14 11 8
20 19 18 20 20 22 24 23 24 25 26 28 27 28 27 25 25 25 25 24 24 24 24 25 25 25 24 23 23 23 24 25 26 26 25 24 23 22 21 20 19 20 22 23 23 23 21 21 19 16 13 12
16 16 16 17 18 19 22 23 23 23 23 26 27 27 26 24 24 24 24 23 23 22 23 23 23 23 22 22 23 23 23 25 26 26 27 26 25 24 22 21 20 19 20 21 22 22 22 22 20 18 14 12
14 14 15 16 17 19 20 22 22 20 20 23 26 25 25 24 23 24 23 23 22 22 22 22 22 22 21 21 22 24 24 24 26 26 27 27 26 25 24 23 22 21 19 20 20 21 22 22 21 19 16 12
14 15 16 16 17 19 20 20 20 19 18 20 22 22 22 23 22 22 22 22 21 20 20 20 20 21 20 21 22 23 24 24 25 25 26 27 27 27 26 25 24 22 20 19 19 20 20 21 21 20 17 14
16 17 18 18 19 19 20 20 19 19 19 19 21 20 19 20 22 21 21 21 19 19 18 19 19 19 19 19 20 21 23 24 24 25 26 26 28 28 27 27 25 24 23 21 20 20 19 19 20 20 18 15
17 17 18 18 19 20 20 20 20 20 19 19 19 19 18 18 19 19 20 19 17 17 17 17 17 17 17 17 19 20 22 23 24 25 25 26 27 27 28 28 27 26 25 23 22 21 20 19 19 19 19 16
16 17 17 18 18 19 19 20 20 20 19 18 17 16 16 15 14 14 16 15 15 16 15 14 15 15 16 17 18 19 21 23 24 26 27 27 28 29 29 29 29 29 27 26 25 24 22 21 19 18 18 17
16 16 17 18 18 19 20 20 20 19 18 16 14 14 13 12 10 8 9 11 13 13 12 11 12 13 15 16 18 20 21 23 24 26 27 29 30 30 30 30 31 31 30 28 27 26 24 23 21 19 18 17
16 17 18 19 20 20 21 21 20 19 18 16 14 14 13 13 11 8 7 8 9 9 9 10 11 13 15 16 18 20 22 23 24 25 26 27 29 31 31 31 32 32 31 30 29 27 27 25 23 22 19 18
17 18 19 20 21 21 21 22 21 20 18 17 16 16 15 16 14 11 10 8 8 8 9 11 12 14 15 16 18 20 21 23 24 24 25 26 26 28 30 31 33 32 31 31 31 29 28 27 26 24 22 20
18 19 20 21 21 20 21 21 21 21 20 20 20 19 19 18 16 14 12 11 10 10 11 12 13 15 16 17 18 20 21 22 23 24 25 25 25 25 26 29 31 33 32 32 32 31 30 29 27 26 24 22
19 20 21 21 20 20 20 20 20 21 21 22 22 22 21 16 13 13 13 13 12 12 12 13 15 16 17 18 19 20 21 21 22 23 23 25 24 23 24 26 28 30 31 31 33 33 31 29 27 26 25 24
20 21 21 21 21 20 19 19 20 20 21 22 23 20 15 11 10 11 13 13 14 14 14 15 16 17 18 19 20 20 21 22 22 23 23 24 24 23 23 22 24 26 28 31 31 31 31 30 28 27 25 24
20 20 20 20 20 19 18 19 19 19 20 20 17 13 10 9 9 11 13 14 15 15 16 17 17 18 19 19 20 21 21 21 21 22 22 23 23 24 23 22 22 22 26 30 29 29 31 30 28 27 24 21
18 19 20 19 18 17 17 17 18 19 17 14 10 9 9 11 11 13 14 15 16 16 17 17 17 18 19 20 20 20 20 20 20 20 21 21 21 22 22 22 20 20 24 24 23 26 29 31 29 23 16 11
17 19 18 16 15 15 17 17 17 17 13 10 11 12 12 13 14 15 15 15 16 16 15 16 17 18 19 20 20 20 20 20 19 20 19 19 20 20 19 19 18 19 18 15 16 18 18 22 24 16 7 4
16 17 14 11 13 15 16 16 16 15 11 12 15 15 14 15 15 16 16 16 15 14 14 15 16 18 18 18 18 18 18 18 18 18 17 16 17 18 18 17 16 16 13 12 15 13 6 7 12 9 6 7
15 14 11 11 13 15 15 15 16 13 11 14 15 15 15 15 15 16 16 14 12 12 13 15 15 15 14 14 14 15 15 15 15 15 15 15 16 17 17 16 14 13 12 12 11 7 3 4 4 4 6 15
14 12 11 13 15 16 16 16 15 12 12 14 15 15 15 15 15 16 14 12 11 12 13 12 11 10 11 12 13 14 14 14 13 13 13 14 14 13 13 15 14 12 11 12 10 5 3 3 2 2 8 15
13 12 12 13 14 16 16 16 14 12 13 15 16 16 16 15 16 16 13 10 10 11 11 10 9 10 12 14 15 15 14 14 14 13 12 12 12 11 11 13 14 13 13 13 11 8 7 7 6 6 10 9
12 13 13 13 13 14 14 14 14 14 15 16 16 16 16 17 16 14 11 10 10 10 10 10 11 13 15 15 15 14 14 14 13 13 14 13 12 12 12 13 13 14 14 12 9 9 10 12 12 11 9 6
Wind_Direction
350 353 355 353 354 356 357 359 1 2 359 356 358 2 6 2 356 357 0 359 359 359 358 358 356 353 351 351 353 0 7 8 8 8 7 4 2 2 3 3 4 12 13 342 237 219 210 220 218 205 203 203
348 352 354 353 354 356 356 357 359 1 1 354 351 355 1 5 358 354 358 0 360 359 358 358 357 354 351 351 354 359 5 8 7 6 7 5 0 358 359 360 357 1 6 2 326 230 210 213 214 208 207 203
348 351 353 352 353 355 355 356 356 358 360 357 351 350 353 360 2 357 356 358 0 360 357 358 358 355 352 352 355 357 1 6 7 4 5 6 1 357 356 359 360 359 0 3 356 302 214 210 208 208 215 213
349 351 350 350 352 353 354 354 354 355 357 357 354 351 349 351 357 1 0 358 360 359 356 357 358 356 354 355 357 356 357 0 4 3 4 5 1 357 355 356 360 1 360 3 6 351 263 207 202 207 219 226
350 350 348 348 350 350 352 353 353 353 354 356 355 354 351 348 351 357 1 0 359 357 355 356 357 356 356 358 360 359 357 356 357 359 0 3 1 358 356 353 354 0 2 3 10 10 359 201 192 206 221 233
348 347 344 345 346 347 349 351 352 353 354 354 354 354 353 353 351 350 354 358 358 356 355 355 355 356 356 358 0 1 360 358 355 353 353 358 359 357 358 356 352 356 360 0 5 15 16 27 175 197 217 233
343 341 340 340 340 341 344 347 348 350 351 352 353 353 353 354 353 349 347 349 350 350 351 354 354 354 356 358 0 360 359 360 359 353 348 350 350 351 358 1 358 354 356 358 358 6 15 18 29 174 210 233
338 336 334 334 335 335 337 340 342 344 345 348 351 351 350 351 351 351 348 345 344 344 345 349 352 353 355 356 359 359 357 358 359 357 352 349 344 344 353 1 2 356 353 355 356 357 2 8 12 9 348 249
330 330 329 328 329 329 330 333 334 337 339 343 347 347 347 346 346 348 350 349 346 345 344 344 348 351 354 354 356 358 358 357 357 359 359 357 352 347 349 355 0 360 355 353 354 355 354 358 3 3 360 342
318 320 324 323 324 324 324 324 326 330 333 337 341 342 342 341 341 342 346 350 351 350 348 346 347 349 352 353 354 356 357 358 359 360 0 0 360 357 352 351 354 357 357 354 353 353 350 349 354 357 354 348
313 315 318 318 318 319 317 317 319 322 326 331 335 337 337 336 335 336 339 345 350 353 353 353 351 350 351 352 354 356 355 356 359 0 1 1 360 359 357 353 350 351 354 356 355 353 349 345 347 351 350 345
318 320 322 320 317 318 320 317 314 314 320 324 328 332 332 331 329 329 332 337 344 349 353 357 357 357 353 352 353 354 355 355 356 358 0 0 359 358 357 355 352 348 349 354 355 354 350 345 342 343 346 342
325 325 324 322 320 323 326 323 315 310 313 317 320 324 327 326 324 323 324 330 337 340 348 355 358 0 359 357 355 353 354 355 354 355 357 358 358 357 355 355 354 349 346 350 353 354 351 347 342 338 340 338
323 323 322 322 322 323 325 326 322 314 310 307 307 313 320 322 320 318 319 324 329 333 342 350 355 359 0 0 359 356 355 355 353 353 353 353 354 355 353 352 352 349 346 346 348 350 350 348 343 337 334 333
320 320 321 321 322 320 320 323 325 323 319 309 302 302 308 314 317 315 314 318 322 330 339 345 351 357 358 0 1 359 357 356 354 351 350 350 349 350 350 349 348 348 345 343 342 343 344 344 343 339 333 325
320 320 320 320 320 319 319 319 321 326 329 325 315 307 302 307 314 313 311 315 323 332 337 341 348 352 353 356 356 356 355 353 352 350 348 346 344 344 344 344 344 345 342 339 337 337 338 337 339 340 334 322
319 319 319 321 321 320 320 318 318 322 329 334 333 326 318 313 314 316 316 318 326 330 333 340 344 343 344 345 347 350 350 350 350 348 346 344 343 342 342 341 341 342 340 337 334 332 333 332 333 335 333 323
320 321 321 321 321 320 319 317 316 317 321 329 339 344 347 341 335 335 327 320 324 329 333 340 340 337 338 339 339 341 344 347 349 348 347 346 343 342 343 342 341 340 338 335 332 329 328 328 327 327 328 325
320 321 320 320 319 318 315 313 312 312 316 321 332 342 353 357 354 352 340 328 334 341 345 345 342 338 337 336 335 335 339 342 344 347 347 347 345 342 342 341 339 339 337 333 330 327 325 323 323 323 321 322
319 318 318 317 316 314 312 310 308 309 312 314 319 325 336 344 342 338 340 341 344 347 345 345 342 339 337 334 333 334 335 338 342 345 345 346 347 344 342 340 338 338 336 332 329 326 323 321 320 320 317 317
317 316 315 312 312 311 309 308 308 310 310 311 312 314 322 329 327 325 332 336 338 342 341 340 339 337 337 334 333 333 334 338 341 341 342 342 344 345 342 340 338 336 335 331 327 324 321 320 318 317 316 313
314 313 312 310 311 309 307 306 307 310 311 311 312 314 319 320 315 317 325 329 330 332 332 333 333 334 336 335 334 334 333 335 335 336 338 338 339 341 341 340 338 335 333 330 326 322 319 318 316 313 312 310
309 308 309 310 312 312 310 309 310 311 311 311 312 314 316 309 304 309 315 321 324 326 327 326 327 329 331 332 333 333 333 333 332 333 334 334 334 334 336 336 335 333 331 329 325 321 317 315 313 310 308 307
307 308 311 313 315 316 317 317 318 317 315 315 313 309 302 299 304 305 308 316 321 323 325 325 325 326 327 327 329 331 332 332 331 330 330 330 330 330 330 330 332 333 332 329 325 323 318 312 310 310 308 305
307 310 315 317 316 317 319 322 323 322 323 324 313 301 300 305 311 310 310 315 318 321 324 324 323 323 323 322 324 326 327 327 326 324 324 324 324 326 327 328 332 335 335 336 333 329 324 317 314 313 311 312
304 310 316 316 313 315 320 323 323 324 326 320 307 304 307 311 315 315 316 318 321 324 323 321 320 319 320 321 322 321 320 320 319 320 321 321 321 323 324 324 328 335 342 346 338 331 326 324 324 322 325 336
304 313 316 307 305 312 318 320 322 324 314 303 305 307 308 311 315 317 318 320 324 324 321 319 318 318 320 321 323 322 320 320 321 323 323 322 321 320 319 317 321 330 339 340 337 335 323 330 333 325 344 336
305 314 311 301 305 312 317 317 319 320 302 297 306 310 312 314 316 316 318 321 325 322 318 319 321 324 326 327 327 326 326 327 329 332 330 325 321 316 312 311 316 321 322 330 341 341 306 332 340 299 342 333
305 308 305 308 315 318 321 320 319 316 302 303 310 312 315 316 314 316 319 323 323 321 321 326 331 335 333 332 330 328 328 327 327 333 338 338 332 322 313 311 314 314 313 320 321 304 282 333 344 286 333 332
299 299 302 311 315 318 321 318 313 308 303 306 309 310 311 309 310 315 320 323 322 324 330 336 340 335 329 328 327 327 325 322 321 323 331 338 339 335 330 323 319 314 311 313 305 284 264 271 280 298 328 331
291 292 299 305 305 308 310 304 299 301 302 303 304 305 305 305 309 315 320 320 322 329 331 331 328 322 321 323 325 325 321 320 321 318 318 322 324 324 327 330 325 316 314 313 301 289 280 275 278 284 297 297